Location: ??????
(56.0120°N, 39.1740°E)
Time: 21:34:38
(UTC+00:00)

Cosmos 1821 Rocket - Pass Details

Date: 14 April 2026
Orbit: 945 x 1003 km, 82.9° (Epoch: 16 May)

Event Time Altitude Azimuth Distance (km) Brightness Sun altitude
Exits shadow 18:04:32 - 178° (S) 3,449 6.5 -12.6°
Reaches altitude 10° 18:06:29 10° 176° (S) 2,720 5.9 -12.8°
Maximum altitude 18:12:40 67° 96° (E) 1,066 4.0 -13.4°
Drops below altitude 10° 18:18:58 10° 15° (NNE) 2,775 6.7 -14.1°
Sets 18:21:32 0° 13° (NNE) 3,733 7.5 -14.3°
